Location: *
(43.8482°S, 179.3370°W)
Time: 12:38:47
(UTC+00:00)

Daily predictions for brighter satellites

Satellite Brightness Start Highest point End
(mag) Time Altitude Azimuth Time Altitude Azimuth Time Altitude Azimuth
Cosmos 1697 Rocket 4.3 16:02:54 29° SE 16:02:54 29° SE 16:05:41 10° SSE
USA 234 4.3 15:57:02 10° ESE 16:02:51 34° SSE 16:02:51 34° SSE
SJ 16-02 3.6 16:30:57 18° NNE 16:30:57 18° NNE 16:32:09 10° NNE
Cosmos 2360 4.4 16:33:53 68° ESE 16:33:53 68° ESE 16:39:02 10° SSE
Meteor 1-21 4.5 16:35:57 63° SSE 16:35:57 63° SSE 16:40:48 10° SSE
MOS 1-B 4.3 16:30:21 10° NNE 16:36:01 81° ENE 16:36:01 81° ENE
Cosmos 1726 4.0 16:43:50 30° E 16:43:50 30° E 16:46:42 10° NE
NOSS 2-3 (E) 4.5 16:48:22 51° SSW 16:50:00 74° SE 16:55:25 10° NE
CZ-4B DEB 4.2 16:44:57 10° N 16:49:50 68° NNW 16:49:50 68° NNW
Cosmos 2263 Rocket 3.4 16:49:23 20° S 16:52:52 39° ESE 16:58:12 10° NE
Envisat 3.7 16:51:34 10° NNE 16:56:31 53° ESE 17:01:07 12° S
Cosmos 2227 Rocket 4.4 17:06:34 11° NNW 17:06:34 11° NNW 17:06:48 10° NNW
Cosmos 1461 3.4 17:03:00 52° ESE 17:03:00 52° ESE 17:06:27 10° NE
NOSS 3-1 (C) 3.3 17:06:25 55° WNW 17:06:25 55° WNW 17:11:39 10° NNE
Cosmos 2082 4.4 17:08:04 38° NW 17:08:04 38° NW 17:12:08 10° N
ATLAS 5 CENTAUR R/B 4.4 17:01:01 10° N 17:07:11 31° ENE 17:13:02 10° SE
Meteor 2-10 3.9 17:06:38 28° S 17:09:31 86° ESE 17:14:38 10° N
Cosmos 990 Rocket 3.9 17:10:27 63° WNW 17:10:30 63° WNW 17:15:43 10° N
USA 267 3.2 17:04:03 10° SE 17:10:42 86° NE 17:14:36 27° NW
NOSS 2-3 (D) 4.3 17:10:05 39° SW 17:12:42 86° NW 17:18:04 10° NNE
Atlas Centaur 2 4.2 17:09:41 22° NW 17:13:25 31° N 17:20:07 10° NE
Okean O Rocket 1.5 17:09:18 10° NNE 17:13:47 85° WNW 17:14:45 55° SSW
Cosmos 1980 Rocket 2.1 17:14:37 39° NW 17:16:43 68° WSW 17:22:22 10° SSE
Cosmos 1763 Rocket 3.4 17:15:53 51° WNW 17:16:57 63° WSW 17:22:14 10° SSE
Cosmos 2195 Rocket 4.4 17:10:48 10° NNW 17:17:07 69° W 17:23:33 10° S
CORIOLIS 4.5 17:13:37 10° NNE 17:19:01 68° ESE 17:24:27 10° S
Cosmos 2369 4.2 17:20:46 39° SW 17:20:46 39° SW 17:25:36 10° SSE
CZ-4C R/B 4.2 17:20:13 18° SSW 17:20:18 18° SSW 17:24:44 10° SSE
USA 229 DEB 3.8 17:23:21 39° WSW 17:25:20 51° WNW 17:31:34 10° NNE
USA 229 3.7 17:23:26 39° WSW 17:25:28 52° WNW 17:31:41 10° NNE
PAYLOAD B 4.4 17:21:07 10° N 17:26:24 46° W 17:27:35 40° WSW
Cosmos 1898 Rocket 3.7 17:26:06 46° W 17:26:49 49° WNW 17:31:57 10° N
Cosmos 468 Rocket 4.3 17:30:50 41° WSW 17:31:00 42° WSW 17:36:00 10° S
KORONAS-FOTON 4.3 17:31:13 10° N 17:34:59 60° E 17:38:49 10° SSE
Cosmos 2026 Rocket 4.0 17:30:16 10° NNW 17:36:18 57° WSW 17:42:30 10° S
NOSS 3-1 (A) 3.4 17:34:58 33° WSW 17:37:26 54° WNW 17:42:43 10° NNE
Aureole 3 Rocket 2.8 17:36:46 37° SSW 17:38:10 66° W 17:42:56 10° N
Cosmos 1570 Rocket 4.0 17:34:22 10° NNW 17:39:43 70° WSW 17:45:10 10° SSE
Cosmos 540 Rocket 3.4 17:34:40 10° NNW 17:39:52 77° WSW 17:45:08 10° SSE
Cosmos 2278 4.1 17:38:07 32° W 17:39:54 41° WSW 17:45:18 10° SSE
SL-16 R/B 2.8 17:35:58 10° N 17:41:32 59° ENE 17:47:09 10° SSE
NOSS 2-3 (C) 4.5 17:38:31 29° SW 17:41:37 53° WNW 17:46:41 10° NNE
SMAP 3.0 17:36:59 10° N 17:41:38 62° W 17:45:30 15° SSW
CZ-4 R/B 3.4 17:39:27 10° NE 17:43:07 29° ESE 17:46:49 10° S
Cosmos 1689 Rocket 1.9 17:40:47 10° S 17:43:52 78° WSW 17:46:54 10° NNW
FengYun 1-2 T 4.5 17:38:24 10° NNE 17:43:58 73° ESE 17:49:40 10° S
Cosmos 1697 Rocket 3.7 17:44:40 25° SW 17:44:40 25° SW 17:49:08 10° S
Cosmos 1626 4.2 17:41:44 10° NNE 17:45:04 31° E 17:48:26 10° SSE
USA 234 3.4 17:38:41 10° ENE 17:45:15 73° SE 17:50:12 19° SW
Cosmos 841 Rocket 3.4 17:40:43 10° NNW 17:45:58 66° WSW 17:51:18 10° SSE
Okean-O 3.8 17:44:25 10° NE 17:48:39 45° ESE 17:52:57 10° S
CZ-4B R/B 3.6 17:44:45 10° NNW 17:49:59 41° W 17:54:39 13° SSW
Cosmos 2228 3.5 17:45:40 10° S 17:49:59 62° E 17:54:14 10° NNE
Cosmos 372 Rocket 3.9 17:45:25 12° SSW 17:50:14 89° WNW 17:55:21 10° NNE
Cosmos 1953 2.7 17:50:07 33° SW 17:51:10 40° W 17:54:56 10° NNW
Orbus 7S? 3.4 17:49:37 20° NW 17:51:40 78° NE 17:57:11 10° SE
Lacrosse 5 rocket 3.3 17:51:51 14° SSW 17:52:11 14° S 17:54:25 10° SSE
YAOGAN 6 2.9 17:52:15 10° N 17:55:42 43° W 17:57:05 29° SW
Cosmos 1908 3.1 17:52:39 10° S 17:56:34 80° W 18:00:24 10° N
Cosmos 2150 Rocket 4.2 17:51:51 10° SSW 17:57:20 75° ESE 18:02:39 10° NNE
Cosmos 1125 Rocket 4.4 17:52:39 10° S 17:57:49 49° ESE 18:02:53 10° NE
Cosmos 1937 Rocket 4.1 17:55:50 24° WSW 17:58:05 35° WNW 18:02:45 10° NNW
Cosmos 1025 Rocket 4.3 18:00:15 21° SW 18:00:15 21° SW 18:02:28 10° SSW
Cosmos 1300 4.3 17:58:04 10° S 18:01:41 35° ESE 18:05:15 10° NE
Cosmos 1417 Rocket 4.5 17:57:02 10° SSW 18:03:14 63° W 18:09:28 10° N
Meteor 1-24 Rocket 4.3 18:01:17 10° N 18:06:34 59° E 18:11:51 10° SSE
ASTEX 1 3.3 18:01:55 10° N 18:06:49 70° W 18:11:49 10° S
Cosmos 1818 3.9 18:02:43 10° NNW 18:08:06 70° ENE 18:13:31 10° SE
Cosmos 1892 Rocket 4.0 18:04:44 10° N 18:09:10 66° E 18:13:39 10° SSE
COSMO-SKYMED 1 2.7 18:04:53 10° SSE 18:09:20 82° ENE 18:13:43 10° N
ADEOS Rocket 2.7 18:06:07 10° S 18:11:39 70° WSW 18:17:17 10° NNW
Cosmos 1655 Rocket 4.0 18:06:48 10° NNW 18:13:02 69° W 18:19:20 10° S
BREEZE-M DEB (TANK) 3.6 18:12:43 20° WSW 18:15:30 69° NNW 18:28:21 10° NE
ATLAS CENTAUR R/B 3.4 18:12:15 10° SSW 18:16:31 30° SE 18:20:46 10° ENE
Cosmos 1726 3.7 18:18:23 17° W 18:18:23 17° W 18:20:48 10° NW
IRS-1C Rocket 4.2 18:14:02 10° N 18:19:13 57° WNW 18:24:30 10° SSW
YAOGAN 1 3.3 18:14:58 10° NNE 18:19:15 57° ESE 18:23:35 10° S
Cosmos 2266 Rocket 4.0 18:13:36 10° N 18:19:56 80° W 18:26:14 10° S
Cosmos 2322 Rocket 2.2 18:15:50 10° NNW 18:21:34 83° WSW 18:27:22 10° SSE
Meteor 2-5 Rocket 3.6 18:16:10 10° NNW 18:21:46 78° W 18:27:24 10° S
Cosmos 1356 Rocket 3.6 18:18:00 10° S 18:22:12 77° ESE 18:26:25 10° NNE
Cosmos 1674 3.4 18:20:58 10° NW 18:24:20 30° WSW 18:27:46 10° SSW
Cosmos 2292 Rocket 4.4 18:21:27 10° NNW 18:28:16 63° W 18:33:25 10° S
Aureole 3 3.8 18:24:10 10° SSW 18:28:34 42° W 18:32:04 10° NNW
Helios 1A Rocket 3.6 18:24:58 10° NNW 18:28:45 35° W 18:32:36 10° SSW
Cosmos 2058 Rocket 3.2 18:24:29 10° S 18:28:59 82° E 18:33:28 10° N
Envisat 4.3 18:32:07 10° NW 18:35:52 20° W 18:39:38 10° SW
Cosmos 2315 Rocket 4.0 18:30:15 10° S 18:36:35 86° W 18:42:50 10° N
Cosmos 2263 Rocket 2.9 18:31:35 10° SW 18:36:43 34° WNW 18:41:47 10° NNW
Cosmos 1606 Rocket 4.0 18:32:47 10° SSW 18:36:54 40° W 18:40:59 10° NNW
Cosmos 2298 Rocket 4.5 18:35:48 10° SSW 18:40:51 43° WNW 18:45:51 10° N
Cosmos 1437 4.2 18:39:12 10° WNW 18:41:14 16° WSW 18:43:18 10° SSW
USA 116 3.5 18:38:50 10° SSE 18:42:02 74° ENE 18:45:22 10° N
Cosmos 2219 Rocket 4.5 18:39:19 10° NNE 18:44:10 30° ENE 18:49:03 10° SE
ATLAS 5 CENTAUR R/B 2.7 18:44:36 10° NW 18:51:45 64° SW 18:58:18 10° SSE
Cosmos 2237 4.2 18:46:26 10° NNW 18:52:09 83° WSW 18:57:56 10° SSE
Cosmos 2360 Rocket 2.2 18:46:56 10° NNW 18:52:37 87° WSW 18:58:20 10° SSE
USA 267 3.8 18:47:15 10° SE 18:53:19 40° SSW 18:59:21 10° W
H-2A R/B 2.8 18:49:03 10° NNE 18:53:52 55° ESE 18:58:50 10° S
SOZ 4.0 18:52:19 10° NW 18:54:56 82° NNE 18:56:55 10° ESE
Cosmos 1844 4.2 18:50:39 10° SSW 18:56:18 64° ESE 19:01:57 10° NE
